Uraga Maru — JD2163 — position and weather

sailwx.info

Track history (hours):
 
Tides and Currents Weather Stations Pressure Air Temp Water Temp Dewpoint Dewpoint Depression Visibility Wind Speed Wind Dir Waves Ship Positions

Uraga Maru

Last reported at 2014-Oct-26 01:32 UTC. Time now 2014-Oct-26 02:03 UTC.
Position N 35°17' E 139°41'.

Length 40 m; draft 2.8 m.

Type: Tug. MMSI: 431101119.

Date/timePositionNaut miles runAvg speedWind from/ knotsBaromVisibWave heightAir tempDewpointWater temp
2014-Oct-26 01:32N 35°17' E 139°41'1 1.1
2014-Oct-26 00:31N 35°17' E 139°39'2 1.7
2014-Oct-25 23:33N 35°19' E 139°40'0 0.0
2014-Oct-25 22:34N 35°19' E 139°40'3 3.2
2014-Oct-25 21:34N 35°21' E 139°43'7 1.7
2014-Oct-25 17:17N 35°13' E 139°43'0 0.0
2014-Oct-25 16:30N 35°13' E 139°43'0 0.0
2014-Oct-25 15:32N 35°13' E 139°43'0 0.0
2014-Oct-25 14:33N 35°13' E 139°43'0 0.0
2014-Oct-25 13:33N 35°13' E 139°43'0 0.0
2014-Oct-25 12:32N 35°13' E 139°43'0 0.2
2014-Oct-25 11:33N 35°13' E 139°43'6 6.4
2014-Oct-25 10:33N 35°20' E 139°43'4 4.2
2014-Oct-25 09:33N 35°24' E 139°44'0 0.0
2014-Oct-25 08:33N 35°24' E 139°44'6 6.5
2014-Oct-25 07:33N 35°17' E 139°45'5 1.1
2014-Oct-25 02:32N 35°12' E 139°46'1110.7
2014-Oct-25 01:34N 35°22' E 139°42'8 7.9
2014-Oct-25 00:33N 35°29' E 139°47'1 0.8
2014-Oct-24 23:31N 35°29' E 139°46'3 3.1
2014-Oct-24 22:33N 35°26' E 139°46'1212.0
2014-Oct-24 21:32N 35°14' E 139°47'4 4.0
2014-Oct-24 20:30N 35°17' E 139°44'3 2.7
2014-Oct-24 19:32N 35°17' E 139°41'0 0.0
2014-Oct-24 18:03N 35°17' E 139°41'0 0.0
2014-Oct-24 09:21N 35°17' E 139°41'0 0.0
2014-Oct-24 08:16N 35°17' E 139°41'0 0.0
2014-Oct-24 07:24N 35°17' E 139°41'0 0.1
2014-Oct-24 06:29N 35°17' E 139°41'1111.3
2014-Oct-24 05:32N 35°25' E 139°49'5 4.8
2014-Oct-24 04:28N 35°30' E 139°50'3 2.8
2014-Oct-24 03:30N 35°30' E 139°47'9 9.5
2014-Oct-24 02:33N 35°23' E 139°39'3 2.7
2014-Oct-24 01:34N 35°25' E 139°42'2 1.7
2014-Oct-24 00:33N 35°27' E 139°42'5 5.1
2014-Oct-23 23:33N 35°23' E 139°45'6 2.6
2014-Oct-23 21:21N 35°17' E 139°43'2 2.3
2014-Oct-23 20:33N 35°17' E 139°41'0 0.0
2014-Oct-23 19:33N 35°17' E 139°41'0 0.0
2014-Oct-23 18:32N 35°17' E 139°41'0 0.0
2014-Oct-23 17:33N 35°17' E 139°41'0 0.0
2014-Oct-23 16:33N 35°17' E 139°41'0 0.0
2014-Oct-23 15:32N 35°17' E 139°41'0 0.0
2014-Oct-23 14:28N 35°17' E 139°41'0 0.0
2014-Oct-23 13:29N 35°17' E 139°41'0 0.0
2014-Oct-23 12:33N 35°17' E 139°41'0 0.0
2014-Oct-23 11:30N 35°17' E 139°41'0 0.1
2014-Oct-23 10:17N 35°17' E 139°41'7 8.4
2014-Oct-23 09:30N 35°12' E 139°46'1212.3
2014-Oct-23 08:33N 35°23' E 139°42'2 1.8
2014-Oct-23 07:33N 35°23' E 139°40'0 0.3
2014-Oct-23 06:33N 35°23' E 139°40'0 0.0
2014-Oct-23 05:33N 35°23' E 139°40'0 0.0
2014-Oct-23 04:33N 35°23' E 139°40'0 0.0
2014-Oct-23 03:33N 35°23' E 139°40'0 0.0
2014-Oct-23 02:33N 35°23' E 139°40'4 3.6
2014-Oct-23 01:33N 35°25' E 139°44'6 6.5
2014-Oct-23 00:33N 35°18' E 139°44'9 8.8
2014-Oct-22 23:33N 35°10' E 139°47'9 8.8
2014-Oct-22 22:33N 35°18' E 139°42'1 1.1
2014-Oct-22 21:33N 35°17' E 139°41'0 0.0
2014-Oct-22 20:33N 35°17' E 139°41'0 0.0
2014-Oct-22 19:33N 35°17' E 139°41'0 0.0
2014-Oct-22 18:33N 35°17' E 139°41'0 0.0
2014-Oct-22 17:33N 35°17' E 139°41'0 0.0
2014-Oct-22 16:33N 35°17' E 139°41'0 0.0
2014-Oct-22 15:33N 35°17' E 139°41'0 0.0
2014-Oct-22 14:33N 35°17' E 139°41'0 0.0
2014-Oct-22 13:33N 35°17' E 139°41'0 0.0
2014-Oct-22 12:33N 35°17' E 139°41'0 0.0
2014-Oct-22 11:33N 35°17' E 139°41'0 0.0
2014-Oct-22 10:33N 35°17' E 139°41'0 0.0
2014-Oct-22 09:33N 35°17' E 139°41'0 0.0
2014-Oct-22 08:33N 35°17' E 139°41'0 0.0
2014-Oct-22 07:33N 35°17' E 139°41'0 0.0
2014-Oct-22 06:33N 35°17' E 139°41'0 0.0
2014-Oct-22 05:33N 35°17' E 139°41'0 0.0
2014-Oct-22 04:33N 35°17' E 139°41'0 0.0
2014-Oct-22 03:33N 35°17' E 139°41'0 0.0
2014-Oct-22 02:33N 35°17' E 139°41'2 1.7
2014-Oct-22 01:33N 35°18' E 139°42'9 9.1
2014-Oct-22 00:33N 35°25' E 139°49'5 5.2
2014-Oct-21 23:33N 35°21' E 139°45'11 9.3
2014-Oct-21 22:20N 35°10' E 139°47'4 3.0
2014-Oct-21 21:06N 35°14' E 139°46'713.1
2014-Oct-21 20:33N 35°20' E 139°43'3 2.9
2014-Oct-21 19:33N 35°17' E 139°41'1 0.7
2014-Oct-21 18:33N 35°17' E 139°41'0 0.0
2014-Oct-21 06:24N 35°17' E 139°41'2 0.9
2014-Oct-21 04:33N 35°18' E 139°42'3 2.7
2014-Oct-21 03:30N 35°16' E 139°45'9 9.2
2014-Oct-21 02:33N 35°25' E 139°44'1110.2
2014-Oct-21 01:26N 35°30' E 139°57'1 1.1
2014-Oct-21 00:29N 35°29' E 139°58'9 9.2
2014-Oct-20 23:32N 35°24' E 139°49'10 9.8
2014-Oct-20 22:33N 35°17' E 139°41'0 0.1
2014-Oct-20 21:33N 35°17' E 139°41'0 0.0
2014-Oct-20 20:33N 35°17' E 139°41'0 0.0
2014-Oct-20 19:33N 35°17' E 139°41'0 0.0
2014-Oct-20 18:33N 35°17' E 139°41'0 0.0
2014-Oct-20 17:33N 35°17' E 139°41'0 0.0
2014-Oct-20 16:33N 35°17' E 139°41'0 0.0
2014-Oct-20 15:33N 35°17' E 139°41'0 0.0
2014-Oct-20 14:33N 35°17' E 139°41'0 0.0
2014-Oct-20 13:33N 35°17' E 139°41'0 0.0
2014-Oct-20 12:33N 35°17' E 139°41'0 0.0
2014-Oct-20 11:33N 35°17' E 139°41'0 0.0
2014-Oct-20 10:33N 35°17' E 139°41'0 0.0
2014-Oct-20 09:33N 35°17' E 139°41'0 0.0
2014-Oct-20 08:33N 35°17' E 139°41'0 0.0
2014-Oct-20 07:33N 35°17' E 139°41'3 2.8
2014-Oct-20 06:20N 35°17' E 139°45'911.4
2014-Oct-20 05:33N 35°26' E 139°46'2 0.4
2014-Oct-20 00:22N 35°26' E 139°48'911.1
2014-Oct-19 23:33N 35°17' E 139°45'2 1.4
2014-Oct-19 22:05N 35°15' E 139°45'4 8.1
2014-Oct-19 21:32N 35°17' E 139°41'0 0.0
2014-Oct-19 20:33N 35°17' E 139°41'0 0.0
2014-Oct-19 19:33N 35°17' E 139°41'0 0.0
2014-Oct-19 18:34N 35°17' E 139°41'0 0.0
2014-Oct-19 17:33N 35°17' E 139°41'0 0.0
2014-Oct-19 16:34N 35°17' E 139°41'0 0.0
2014-Oct-19 15:33N 35°17' E 139°41'0 0.0
2014-Oct-19 14:33N 35°17' E 139°41'0 0.0
2014-Oct-19 13:31N 35°17' E 139°41'0 0.0
2014-Oct-19 12:33N 35°17' E 139°41'0 0.0
2014-Oct-19 11:33N 35°17' E 139°41'0 0.0
2014-Oct-19 10:29N 35°17' E 139°41'0 0.0
2014-Oct-19 09:34N 35°17' E 139°41'0 0.0
2014-Oct-19 08:33N 35°17' E 139°41'0 0.0
2014-Oct-19 07:33N 35°17' E 139°41'0 0.0
2014-Oct-19 06:31N 35°17' E 139°41'0 0.0
2014-Oct-19 05:30N 35°17' E 139°41'0 0.0
2014-Oct-19 04:27N 35°17' E 139°41'0 0.0
2014-Oct-19 03:32N 35°17' E 139°41'0 0.0
2014-Oct-19 02:33N 35°17' E 139°41'0 0.0
2014-Oct-19 01:33N 35°17' E 139°41'0 0.0
2014-Oct-19 00:33N 35°17' E 139°41'1 1.0
2014-Oct-18 23:34N 35°18' E 139°42'4 3.1
2014-Oct-18 22:07N 35°13' E 139°43'3 4.5
2014-Oct-18 21:33N 35°12' E 139°46'1212.2
2014-Oct-18 20:34N 35°24' E 139°43'2 1.5
2014-Oct-18 19:31N 35°24' E 139°45'0 0.0
2014-Oct-18 18:33N 35°24' E 139°45'0 0.0
2014-Oct-18 17:33N 35°24' E 139°45'0 0.0
2014-Oct-18 16:33N 35°24' E 139°45'0 0.0
2014-Oct-18 15:33N 35°24' E 139°45'0 0.0
2014-Oct-18 14:26N 35°24' E 139°45'4 4.1
2014-Oct-18 13:33N 35°21' E 139°45'10 9.0
2014-Oct-18 12:29N 35°11' E 139°47'4 4.1
2014-Oct-18 11:33N 35°13' E 139°43'0 0.1
2014-Oct-18 10:04N 35°13' E 139°43'3 4.1
2014-Oct-18 09:22N 35°14' E 139°46'1012.2
2014-Oct-18 08:33N 35°23' E 139°41'1 0.6
2014-Oct-18 07:33N 35°23' E 139°40'8 7.4
2014-Oct-18 06:27N 35°16' E 139°45'3 3.5
2014-Oct-18 05:30N 35°19' E 139°43'5 5.4
2014-Oct-18 04:33N 35°23' E 139°40'6 5.9
2014-Oct-18 03:32N 35°17' E 139°41'0 0.1
2014-Oct-18 02:22N 35°17' E 139°41'0 0.0
2014-Oct-18 00:21N 35°17' E 139°41'0 0.0
2014-Oct-17 22:21N 35°17' E 139°41'0 0.0
2014-Oct-17 21:22N 35°17' E 139°41'0 0.0
2014-Oct-17 20:33N 35°17' E 139°41'0 0.0
2014-Oct-17 19:21N 35°17' E 139°41'0 0.0
2014-Oct-17 18:33N 35°17' E 139°41'0 0.0
2014-Oct-17 17:33N 35°17' E 139°41'0 0.0
2014-Oct-17 16:27N 35°17' E 139°41'0 0.0
2014-Oct-17 15:33N 35°17' E 139°41'0 0.0
2014-Oct-17 14:33N 35°17' E 139°41'0 0.0
2014-Oct-17 13:11N 35°17' E 139°41'0 0.0
2014-Oct-17 12:29N 35°17' E 139°41'0 0.0
2014-Oct-17 11:32N 35°17' E 139°41'0 0.0
2014-Oct-17 08:09N 35°17' E 139°41'0 0.0
2014-Oct-17 05:33N 35°17' E 139°41'0 0.0
2014-Oct-17 04:32N 35°17' E 139°41'0 0.0
2014-Oct-17 03:12N 35°17' E 139°41'0 0.0
2014-Oct-17 02:32N 35°17' E 139°41'0 0.0
2014-Oct-17 01:27N 35°17' E 139°41'9 9.9
2014-Oct-17 00:33N 35°25' E 139°46'1110.2
2014-Oct-16 23:31N 35°14' E 139°47'4 4.0
2014-Oct-16 22:31N 35°17' E 139°44'5 4.9
2014-Oct-16 21:33N 35°22' E 139°45'9 4.4
2014-Oct-16 19:33N 35°13' E 139°43'0 0.0
2014-Oct-16 10:32N 35°13' E 139°43'5 5.4
2014-Oct-16 09:33N 35°19' E 139°44'8 7.6
2014-Oct-16 08:33N 35°26' E 139°46'1 0.6
2014-Oct-16 06:21N 35°25' E 139°48'911.0
2014-Oct-16 05:33N 35°17' E 139°46'2 0.6
2014-Oct-16 02:22N 35°15' E 139°46'911.0
2014-Oct-16 01:33N 35°23' E 139°42'  
Track history (hours):
 
Tides and Currents Weather Stations Pressure Air Temp Water Temp Dewpoint Dewpoint Depression Visibility Wind Speed Wind Dir Waves Ship Positions

Uraga Maru

Last reported at 2014-Oct-26 01:32 UTC. Time now 2014-Oct-26 02:03 UTC.
Position N 35°17' E 139°41'.

Length 40 m; draft 2.8 m.

Type: Tug. MMSI: 431101119.

Date/timePositionNaut miles runAvg speedWind from/ knotsBaromVisibWave heightAir tempDewpointWater temp
2014-Oct-26 01:32N 35°17' E 139°41'1 1.1
2014-Oct-26 00:31N 35°17' E 139°39'2 1.7
2014-Oct-25 23:33N 35°19' E 139°40'0 0.0
2014-Oct-25 22:34N 35°19' E 139°40'3 3.2
2014-Oct-25 21:34N 35°21' E 139°43'7 1.7
2014-Oct-25 17:17N 35°13' E 139°43'0 0.0
2014-Oct-25 16:30N 35°13' E 139°43'0 0.0
2014-Oct-25 15:32N 35°13' E 139°43'0 0.0
2014-Oct-25 14:33N 35°13' E 139°43'0 0.0
2014-Oct-25 13:33N 35°13' E 139°43'0 0.0
2014-Oct-25 12:32N 35°13' E 139°43'0 0.2
2014-Oct-25 11:33N 35°13' E 139°43'6 6.4
2014-Oct-25 10:33N 35°20' E 139°43'4 4.2
2014-Oct-25 09:33N 35°24' E 139°44'0 0.0
2014-Oct-25 08:33N 35°24' E 139°44'6 6.5
2014-Oct-25 07:33N 35°17' E 139°45'5 1.1
2014-Oct-25 02:32N 35°12' E 139°46'1110.7
2014-Oct-25 01:34N 35°22' E 139°42'8 7.9
2014-Oct-25 00:33N 35°29' E 139°47'1 0.8
2014-Oct-24 23:31N 35°29' E 139°46'3 3.1
2014-Oct-24 22:33N 35°26' E 139°46'1212.0
2014-Oct-24 21:32N 35°14' E 139°47'4 4.0
2014-Oct-24 20:30N 35°17' E 139°44'3 2.7
2014-Oct-24 19:32N 35°17' E 139°41'0 0.0
2014-Oct-24 18:03N 35°17' E 139°41'0 0.0
2014-Oct-24 09:21N 35°17' E 139°41'0 0.0
2014-Oct-24 08:16N 35°17' E 139°41'0 0.0
2014-Oct-24 07:24N 35°17' E 139°41'0 0.1
2014-Oct-24 06:29N 35°17' E 139°41'1111.3
2014-Oct-24 05:32N 35°25' E 139°49'5 4.8
2014-Oct-24 04:28N 35°30' E 139°50'3 2.8
2014-Oct-24 03:30N 35°30' E 139°47'9 9.5
2014-Oct-24 02:33N 35°23' E 139°39'3 2.7
2014-Oct-24 01:34N 35°25' E 139°42'2 1.7
2014-Oct-24 00:33N 35°27' E 139°42'5 5.1
2014-Oct-23 23:33N 35°23' E 139°45'6 2.6
2014-Oct-23 21:21N 35°17' E 139°43'2 2.3
2014-Oct-23 20:33N 35°17' E 139°41'0 0.0
2014-Oct-23 19:33N 35°17' E 139°41'0 0.0
2014-Oct-23 18:32N 35°17' E 139°41'0 0.0
2014-Oct-23 17:33N 35°17' E 139°41'0 0.0
2014-Oct-23 16:33N 35°17' E 139°41'0 0.0
2014-Oct-23 15:32N 35°17' E 139°41'0 0.0
2014-Oct-23 14:28N 35°17' E 139°41'0 0.0
2014-Oct-23 13:29N 35°17' E 139°41'0 0.0
2014-Oct-23 12:33N 35°17' E 139°41'0 0.0
2014-Oct-23 11:30N 35°17' E 139°41'0 0.1
2014-Oct-23 10:17N 35°17' E 139°41'7 8.4
2014-Oct-23 09:30N 35°12' E 139°46'1212.3
2014-Oct-23 08:33N 35°23' E 139°42'2 1.8
2014-Oct-23 07:33N 35°23' E 139°40'0 0.3
2014-Oct-23 06:33N 35°23' E 139°40'0 0.0
2014-Oct-23 05:33N 35°23' E 139°40'0 0.0
2014-Oct-23 04:33N 35°23' E 139°40'0 0.0
2014-Oct-23 03:33N 35°23' E 139°40'0 0.0
2014-Oct-23 02:33N 35°23' E 139°40'4 3.6
2014-Oct-23 01:33N 35°25' E 139°44'6 6.5
2014-Oct-23 00:33N 35°18' E 139°44'9 8.8
2014-Oct-22 23:33N 35°10' E 139°47'9 8.8
2014-Oct-22 22:33N 35°18' E 139°42'1 1.1
2014-Oct-22 21:33N 35°17' E 139°41'0 0.0
2014-Oct-22 20:33N 35°17' E 139°41'0 0.0
2014-Oct-22 19:33N 35°17' E 139°41'0 0.0
2014-Oct-22 18:33N 35°17' E 139°41'0 0.0
2014-Oct-22 17:33N 35°17' E 139°41'0 0.0
2014-Oct-22 16:33N 35°17' E 139°41'0 0.0
2014-Oct-22 15:33N 35°17' E 139°41'0 0.0
2014-Oct-22 14:33N 35°17' E 139°41'0 0.0
2014-Oct-22 13:33N 35°17' E 139°41'0 0.0
2014-Oct-22 12:33N 35°17' E 139°41'0 0.0
2014-Oct-22 11:33N 35°17' E 139°41'0 0.0
2014-Oct-22 10:33N 35°17' E 139°41'0 0.0
2014-Oct-22 09:33N 35°17' E 139°41'0 0.0
2014-Oct-22 08:33N 35°17' E 139°41'0 0.0
2014-Oct-22 07:33N 35°17' E 139°41'0 0.0
2014-Oct-22 06:33N 35°17' E 139°41'0 0.0
2014-Oct-22 05:33N 35°17' E 139°41'0 0.0
2014-Oct-22 04:33N 35°17' E 139°41'0 0.0
2014-Oct-22 03:33N 35°17' E 139°41'0 0.0
2014-Oct-22 02:33N 35°17' E 139°41'2 1.7
2014-Oct-22 01:33N 35°18' E 139°42'9 9.1
2014-Oct-22 00:33N 35°25' E 139°49'5 5.2
2014-Oct-21 23:33N 35°21' E 139°45'11 9.3
2014-Oct-21 22:20N 35°10' E 139°47'4 3.0
2014-Oct-21 21:06N 35°14' E 139°46'713.1
2014-Oct-21 20:33N 35°20' E 139°43'3 2.9
2014-Oct-21 19:33N 35°17' E 139°41'1 0.7
2014-Oct-21 18:33N 35°17' E 139°41'0 0.0
2014-Oct-21 06:24N 35°17' E 139°41'2 0.9
2014-Oct-21 04:33N 35°18' E 139°42'3 2.7
2014-Oct-21 03:30N 35°16' E 139°45'9 9.2
2014-Oct-21 02:33N 35°25' E 139°44'1110.2
2014-Oct-21 01:26N 35°30' E 139°57'1 1.1
2014-Oct-21 00:29N 35°29' E 139°58'9 9.2
2014-Oct-20 23:32N 35°24' E 139°49'10 9.8
2014-Oct-20 22:33N 35°17' E 139°41'0 0.1
2014-Oct-20 21:33N 35°17' E 139°41'0 0.0
2014-Oct-20 20:33N 35°17' E 139°41'0 0.0
2014-Oct-20 19:33N 35°17' E 139°41'0 0.0
2014-Oct-20 18:33N 35°17' E 139°41'0 0.0
2014-Oct-20 17:33N 35°17' E 139°41'0 0.0
2014-Oct-20 16:33N 35°17' E 139°41'0 0.0
2014-Oct-20 15:33N 35°17' E 139°41'0 0.0
2014-Oct-20 14:33N 35°17' E 139°41'0 0.0
2014-Oct-20 13:33N 35°17' E 139°41'0 0.0
2014-Oct-20 12:33N 35°17' E 139°41'0 0.0
2014-Oct-20 11:33N 35°17' E 139°41'0 0.0
2014-Oct-20 10:33N 35°17' E 139°41'0 0.0
2014-Oct-20 09:33N 35°17' E 139°41'0 0.0
2014-Oct-20 08:33N 35°17' E 139°41'0 0.0
2014-Oct-20 07:33N 35°17' E 139°41'3 2.8
2014-Oct-20 06:20N 35°17' E 139°45'911.4
2014-Oct-20 05:33N 35°26' E 139°46'2 0.4
2014-Oct-20 00:22N 35°26' E 139°48'911.1
2014-Oct-19 23:33N 35°17' E 139°45'2 1.4
2014-Oct-19 22:05N 35°15' E 139°45'4 8.1
2014-Oct-19 21:32N 35°17' E 139°41'0 0.0
2014-Oct-19 20:33N 35°17' E 139°41'0 0.0
2014-Oct-19 19:33N 35°17' E 139°41'0 0.0
2014-Oct-19 18:34N 35°17' E 139°41'0 0.0
2014-Oct-19 17:33N 35°17' E 139°41'0 0.0
2014-Oct-19 16:34N 35°17' E 139°41'0 0.0
2014-Oct-19 15:33N 35°17' E 139°41'0 0.0
2014-Oct-19 14:33N 35°17' E 139°41'0 0.0
2014-Oct-19 13:31N 35°17' E 139°41'0 0.0
2014-Oct-19 12:33N 35°17' E 139°41'0 0.0
2014-Oct-19 11:33N 35°17' E 139°41'0 0.0
2014-Oct-19 10:29N 35°17' E 139°41'0 0.0
2014-Oct-19 09:34N 35°17' E 139°41'0 0.0
2014-Oct-19 08:33N 35°17' E 139°41'0 0.0
2014-Oct-19 07:33N 35°17' E 139°41'0 0.0
2014-Oct-19 06:31N 35°17' E 139°41'0 0.0
2014-Oct-19 05:30N 35°17' E 139°41'0 0.0
2014-Oct-19 04:27N 35°17' E 139°41'0 0.0
2014-Oct-19 03:32N 35°17' E 139°41'0 0.0
2014-Oct-19 02:33N 35°17' E 139°41'0 0.0
2014-Oct-19 01:33N 35°17' E 139°41'0 0.0
2014-Oct-19 00:33N 35°17' E 139°41'1 1.0
2014-Oct-18 23:34N 35°18' E 139°42'4 3.1
2014-Oct-18 22:07N 35°13' E 139°43'3 4.5
2014-Oct-18 21:33N 35°12' E 139°46'1212.2
2014-Oct-18 20:34N 35°24' E 139°43'2 1.5
2014-Oct-18 19:31N 35°24' E 139°45'0 0.0
2014-Oct-18 18:33N 35°24' E 139°45'0 0.0
2014-Oct-18 17:33N 35°24' E 139°45'0 0.0
2014-Oct-18 16:33N 35°24' E 139°45'0 0.0
2014-Oct-18 15:33N 35°24' E 139°45'0 0.0
2014-Oct-18 14:26N 35°24' E 139°45'4 4.1
2014-Oct-18 13:33N 35°21' E 139°45'10 9.0
2014-Oct-18 12:29N 35°11' E 139°47'4 4.1
2014-Oct-18 11:33N 35°13' E 139°43'0 0.1
2014-Oct-18 10:04N 35°13' E 139°43'3 4.1
2014-Oct-18 09:22N 35°14' E 139°46'1012.2
2014-Oct-18 08:33N 35°23' E 139°41'1 0.6
2014-Oct-18 07:33N 35°23' E 139°40'8 7.4
2014-Oct-18 06:27N 35°16' E 139°45'3 3.5
2014-Oct-18 05:30N 35°19' E 139°43'5 5.4
2014-Oct-18 04:33N 35°23' E 139°40'6 5.9
2014-Oct-18 03:32N 35°17' E 139°41'0 0.1
2014-Oct-18 02:22N 35°17' E 139°41'0 0.0
2014-Oct-18 00:21N 35°17' E 139°41'0 0.0
2014-Oct-17 22:21N 35°17' E 139°41'0 0.0
2014-Oct-17 21:22N 35°17' E 139°41'0 0.0
2014-Oct-17 20:33N 35°17' E 139°41'0 0.0
2014-Oct-17 19:21N 35°17' E 139°41'0 0.0
2014-Oct-17 18:33N 35°17' E 139°41'0 0.0
2014-Oct-17 17:33N 35°17' E 139°41'0 0.0
2014-Oct-17 16:27N 35°17' E 139°41'0 0.0
2014-Oct-17 15:33N 35°17' E 139°41'0 0.0
2014-Oct-17 14:33N 35°17' E 139°41'0 0.0
2014-Oct-17 13:11N 35°17' E 139°41'0 0.0
2014-Oct-17 12:29N 35°17' E 139°41'0 0.0
2014-Oct-17 11:32N 35°17' E 139°41'0 0.0
2014-Oct-17 08:09N 35°17' E 139°41'0 0.0
2014-Oct-17 05:33N 35°17' E 139°41'0 0.0
2014-Oct-17 04:32N 35°17' E 139°41'0 0.0
2014-Oct-17 03:12N 35°17' E 139°41'0 0.0
2014-Oct-17 02:32N 35°17' E 139°41'0 0.0
2014-Oct-17 01:27N 35°17' E 139°41'9 9.9
2014-Oct-17 00:33N 35°25' E 139°46'1110.2
2014-Oct-16 23:31N 35°14' E 139°47'4 4.0
2014-Oct-16 22:31N 35°17' E 139°44'5 4.9
2014-Oct-16 21:33N 35°22' E 139°45'9 4.4
2014-Oct-16 19:33N 35°13' E 139°43'0 0.0
2014-Oct-16 10:32N 35°13' E 139°43'5 5.4
2014-Oct-16 09:33N 35°19' E 139°44'8 7.6
2014-Oct-16 08:33N 35°26' E 139°46'1 0.6
2014-Oct-16 06:21N 35°25' E 139°48'911.0
2014-Oct-16 05:33N 35°17' E 139°46'2 0.6
2014-Oct-16 02:22N 35°15' E 139°46'911.0
2014-Oct-16 01:33N 35°23' E 139°42'  

Dump ship's entire track history